Flag for Australia Weather past 2 weeks in Wagga Wagga, New South Wales, Australia

Now
55 °F

Clear.


Feels Like: 54 °F
Forecast: 50 / 72 °F
Wind: 7 mph from Southeast

Location: Wagga Airport


UV Index: 3 (Moderate)

Visibility: N/A


Pressure: 30.12 "Hg

Humidity: 72%

Dew point: 46 °F

Location of Wagga WaggaLocation

Historic Weather in Wagga Wagga

°F

Wagga Wagga temperature yesterday

Maximum temperature yesterday: 61 °F (at 2:00 PM)
Minimum temperature yesterday: 37 °F (at 5:00 AM)
Average temperature yesterday: 49 °F

Past Weeks' High & Low Weather Summary

 TemperatureHumidityPressure
High73 °F (Apr 7, 1:00 PM)100% (Apr 10, 12:00 PM)30.27 "Hg (Apr 10, 12:00 PM)
Low36 °F (Apr 21, 5:00 AM)37% (Apr 19, 2:00 PM)29.68 "Hg (Apr 11, 1:00 PM)
Average59 °F72%30.05 "Hg
* Reported Apr 6 7:00 PM — Apr 21 7:00 PM, Wagga Wagga, Weather by CustomWeather, © 2014

Note: Actual official high and low records may vary slightly from our data, if they occured in-between our weather recording intervals... More about our weather records

Advertising

Historic Weather Conditions — Data for Previous 24 hours

 ConditionsComfort  
Time TempWeatherWind HumidityBarometerVisibility
7:00 PM
Apr 21
54 °FClear.7 mph72%30.12 "HgN/A
6:00 PM57 °FClear.6 mph67%30.09 "HgN/A
5:00 PM61 °FClear.6 mph59%30.09 "Hg10 mi
4:00 PM64 °FSunny.5 mph46%30.09 "HgN/A
3:00 PM64 °FSunny.5 mph46%30.09 "Hg10 mi
2:00 PM64 °FSunny.6 mph46%30.09 "HgN/A
1:00 PM63 °FPassing clouds.6 mph49%30.12 "HgN/A
12:00 PM61 °FPassing clouds.6 mph48%30.15 "HgN/A
11:00 AM57 °FSunny.7 mph59%30.15 "Hg10 mi
10:00 AM54 °FPassing clouds.5 mph63%30.18 "HgN/A
9:00 AM48 °FSunny.8 mph76%30.18 "Hg10 mi
8:00 AM45 °FSunny.5 mph81%30.18 "Hg10 mi
7:00 AM39 °FLight fog.5 mph87%30.15 "HgN/A
6:00 AM37 °FSunny.5 mph93%30.15 "Hg10 mi
5:00 AM36 °FClear.No wind100%30.12 "HgN/A
4:00 AM39 °FClear.5 mph87%30.09 "HgN/A
3:00 AM39 °FClear.5 mph93%30.12 "Hg3 mi
2:00 AM41 °FClear.No wind93%30.12 "HgN/A
1:00 AM43 °FClear.No wind81%30.12 "HgN/A
12:00 AM43 °FClear.No wind93%30.12 "HgN/A
11:00 PM
Apr 20
45 °FClear.No wind87%30.12 "HgN/A
10:00 PM46 °FClear.3 mph82%30.12 "HgN/A
9:00 PM48 °FClear.5 mph76%30.12 "HgN/A
8:00 PM52 °FOvercast.6 mph72%30.12 "HgN/A
Weather by CustomWeather, © 2014

See weather overview